Address 0x7f337af0d8304065f7d2cb6433d599343e1b7a25 13

Txn Hash Method
Block
From
To
Value [Txn Fee]
0xa14655ae36ba1fed740d4c0fe77444166e9e59875b8d6f627bfee9dc6b1911a3Deposit With Per...19371822022-09-24 16:35:061 day 23 hrs ago0x7f337af0d8304065f7d2cb6433d599343e1b7a25OUT Beamswap: Beamchef0 GLMR0.03574018
0x754095baab4a83d7e228660d8b331db524fd28df4a78db807d72bdde8095abcbAdd Liquidity ET...19371682022-09-24 16:32:001 day 23 hrs ago0x7f337af0d8304065f7d2cb6433d599343e1b7a25OUT Beamswap: Router 0231.905584720412212 GLMR0.0167439475
0x15571f1f064370f0c75086b3f7b2317672f63ed94727bdb5496fc61f86858f6bTransfer*19371632022-09-24 16:30:541 day 23 hrs ago0x7f337af0d8304065f7d2cb6433d599343e1b7a25OUT0xfffffffecb45afd30a637967995394cc88c0c1940 GLMR0.0036697325
0x8b76da78372c25410233b7f4677f9adbc15cb25d4a51c8df4ab50c2f31159316Swap Exact ETH F...19371582022-09-24 16:29:361 day 23 hrs ago0x7f337af0d8304065f7d2cb6433d599343e1b7a25OUT Beamswap: Router 0232 GLMR0.0114251445
0xa36ddc21d557cccbdb98e8471f3b6edac48c39490007627a912d072f1c0ffff9Transfer19371392022-09-24 16:25:241 day 23 hrs ago0xe5c3b52ee1cd2c808a6ec26914742ae24d98b99f IN 0x7f337af0d8304065f7d2cb6433d599343e1b7a2564.86 GLMR0.0021315
0xf6ba94a47d5530772885f928c116f38eba7724f19a3823e3e2b594508b5f2fa1Deposit With Per...19371172022-09-24 16:20:061 day 23 hrs ago0x7f337af0d8304065f7d2cb6433d599343e1b7a25OUT Beamswap: Beamchef0 GLMR0.0179796085
0x0b2aa277074e17edf77ec8d33a2f7146248e581db05365708dab08917bfecdf10x9ca37a0b19371062022-09-24 16:17:481 day 23 hrs ago0x7f337af0d8304065f7d2cb6433d599343e1b7a25OUT 0x531fcbe5623abcfcc02cabbabf4854aab7add3fd0 GLMR0.030682029
0x4644f885bb3e6e0956efeaecbd9624422527e4c9d8dfdde2df7addf0e292be9bHarvest Many19311892022-09-23 19:49:242 days 20 hrs ago0x7f337af0d8304065f7d2cb6433d599343e1b7a25OUT Beamswap: Beamchef0 GLMR0.036468747
0x4d8ea57b9c51ea19d24303881e7cd2a3cd0e8f88a6f01cb7472d4163485b7441Deposit With Per...18878722022-09-17 15:30:369 days 43 mins ago0x7f337af0d8304065f7d2cb6433d599343e1b7a25OUT Beamswap: Beamchef0 GLMR0.0199982405
0x35c2901f2448fa11bdf7554a6397dc00ce7ff6cd96982e05170cc48a53329b8b0x9ca37a0b18878692022-09-17 15:30:009 days 43 mins ago0x7f337af0d8304065f7d2cb6433d599343e1b7a25OUT 0x531fcbe5623abcfcc02cabbabf4854aab7add3fd0 GLMR0.0308835065
0x35184d35a54b58d531d393b5ed898ae2dfbd459cfdce3bd5adfae2e4a0f390d0Harvest Many18878242022-09-17 15:21:009 days 52 mins ago0x7f337af0d8304065f7d2cb6433d599343e1b7a25OUT Beamswap: Beamchef0 GLMR0.036468747
0x6cae8a9249081f41bfcc18925e0040e84c0489359034c013bca73187bb622b35Deposit With Per...18391102022-09-10 15:54:0016 days 19 mins ago0x7f337af0d8304065f7d2cb6433d599343e1b7a25OUT Beamswap: Beamchef0 GLMR0.0199982405
0x7d2dddfa7e3d1602e20622e5319269a35b4b865a8fc0bdc5d9a16233e66de1210x9ca37a0b18391062022-09-10 15:53:1216 days 20 mins ago0x7f337af0d8304065f7d2cb6433d599343e1b7a25OUT 0x531fcbe5623abcfcc02cabbabf4854aab7add3fd0 GLMR0.0308835065
0xb37e77b07bc5b7b15cee8d3104283dcfd01ea545d622abf071e0dc46ad345d67Harvest Many18390992022-09-10 15:51:4816 days 22 mins ago0x7f337af0d8304065f7d2cb6433d599343e1b7a25OUT Beamswap: Beamchef0 GLMR0.045780357
0xfa8dc0aea9459f2c1828743c474d6a1ba78a43e22fd9b8a21d9a362e41f61f4fDeposit With Per...17881512022-09-03 6:43:2423 days 9 hrs ago0x7f337af0d8304065f7d2cb6433d599343e1b7a25OUT Beamswap: Beamchef0 GLMR0.0206922975
0x1bf558487e8748a113ec1d4892514e3d3e86ceab60bc1b9b8b6bbe71dba164f00x9ca37a0b17881472022-09-03 6:42:3623 days 9 hrs ago0x7f337af0d8304065f7d2cb6433d599343e1b7a25OUT 0x531fcbe5623abcfcc02cabbabf4854aab7add3fd0 GLMR0.0308835065
0xa3962c1c52be90d779e50d3945e68e9f1fa774dc369aa70fed5d80f0f56f18cdHarvest Many17881402022-09-03 6:41:1223 days 9 hrs ago0x7f337af0d8304065f7d2cb6433d599343e1b7a25OUT Beamswap: Beamchef0 GLMR0.038558226
0xbc2c8e288d62d6d1ffca7d7947f4d296f59c6f2ce768c472c81307a2fb09149bDeposit With Per...17486792022-08-28 14:34:2429 days 1 hr ago0x7f337af0d8304065f7d2cb6433d599343e1b7a25OUT Beamswap: Beamchef0 GLMR0.0206947335
0x8c3750e30ca71a6e43b204af4a614ba268038633d928a4a93769ab1789e11079Add Liquidity17486722022-08-28 14:33:0029 days 1 hr ago0x7f337af0d8304065f7d2cb6433d599343e1b7a25OUT Beamswap: Router 020 GLMR0.0156995125
0xb2e197fe0895eaed3568f2ed4d3ea299faf8defe6fcf729bc15735f234441b83Swap Exact Token...17486672022-08-28 14:32:0029 days 1 hr ago0x7f337af0d8304065f7d2cb6433d599343e1b7a25OUT Beamswap: Router 020 GLMR0.0099353275
0x669edaf12cd214b94399a6eae6377d7fb3c2f4b5433889af60888a71f8f3e6acSwap Exact Token...17486572022-08-28 14:30:0029 days 1 hr ago0x7f337af0d8304065f7d2cb6433d599343e1b7a25OUT Beamswap: Router 020 GLMR0.0101399515
0x49951c483b445841fb0692fa26a24ee526e77078d7809518dcfb2a0657029db4Swap Exact Token...17486532022-08-28 14:29:1229 days 1 hr ago0x7f337af0d8304065f7d2cb6433d599343e1b7a25OUT Beamswap: Router 020 GLMR0.014767032
0x05cbb3e6e3b62600e93cce6312703733b7ec65842a847908795f10a641e3d73fHarvest Many17486342022-08-28 14:25:1229 days 1 hr ago0x7f337af0d8304065f7d2cb6433d599343e1b7a25OUT Beamswap: Beamchef0 GLMR0.038558226
0x82ff91fd459a849cc220896e79ce2e624461b5ed4f4e8ab038e58ffbc57dfbb3Deposit With Per...16982602022-08-21 9:05:4236 days 7 hrs ago0x7f337af0d8304065f7d2cb6433d599343e1b7a25OUT Beamswap: Beamchef0 GLMR0.0206922975
0x14d3389f728e83d6fcde3778c510174eda90b9bac4294b33e2c8ef7d896932a50x9ca37a0b16982522022-08-21 9:04:0036 days 7 hrs ago0x7f337af0d8304065f7d2cb6433d599343e1b7a25OUT 0x531fcbe5623abcfcc02cabbabf4854aab7add3fd0 GLMR0.0308835065
[ Download CSV Export 
Latest 10 internal transactions
Parent Txn Hash Block From To Value
0x8ad5f40549fe313eaa8cdb6b93430f3980243b4622afbc5d863c7b64ccf9679716794532022-08-18 16:25:2438 days 23 hrs ago Beamswap: Router 020x7f337af0d8304065f7d2cb6433d599343e1b7a250.000000000699302049 GLMR
0xe45a8e3e690f5e0623b64e92a3e9e03c11c260424640bbe76c17dda76d324fc616794402022-08-18 16:22:3638 days 23 hrs ago Beamswap: Router 020x7f337af0d8304065f7d2cb6433d599343e1b7a25131.151192167286695566 GLMR
0xe032f30b6a36c85ca2513069ddb7137a72abdf6eb55525c111fdd9df3c83dac07693952022-04-07 14:32:48172 days 1 hr ago Moonbeam: WGLMR Token0x7f337af0d8304065f7d2cb6433d599343e1b7a255 GLMR
0xe32b57fb8d0ea3e83a1964b4073da2015a749574eba135c01c459b373f655d6e7693612022-04-07 14:26:00172 days 1 hr ago Beamswap: Router 020x7f337af0d8304065f7d2cb6433d599343e1b7a25586.437877724069697687 GLMR
0x3cdbabe539e0c40889376a2ed1fbf1c88a2daca5af5a846e4c13c3f0cc06e0a92650962022-01-24 21:28:36244 days 18 hrs ago Beamswap: Router 020x7f337af0d8304065f7d2cb6433d599343e1b7a250.000276459321649982 GLMR
0x073a1775fad60180f2840798d3107e81070c878376a325d61e42240833fa57fb2650892022-01-24 21:27:12244 days 18 hrs ago Beamswap: Router 020x7f337af0d8304065f7d2cb6433d599343e1b7a252.181275580752780342 GLMR
0x8d31eaecf1e87a420c1b52ec0f087bb634f5b1210362abd2d9816d4a90d641022378302022-01-20 23:56:36248 days 16 hrs ago Beamswap: Router 020x7f337af0d8304065f7d2cb6433d599343e1b7a250.000500877829269673 GLMR
0x4a12d698a687857eb2e1aa88bb0cbef2b4fbb45b769b149889ab1cb3dc9301b62378012022-01-20 23:50:18248 days 16 hrs ago Beamswap: Router 020x7f337af0d8304065f7d2cb6433d599343e1b7a254.037220485682936415 GLMR
0x979a885fc5f88665cb64939149e7c391d988e5e4dc6bd1ef31dc83d886a87da32228622022-01-18 20:04:18250 days 20 hrs ago Beamswap: Router 020x7f337af0d8304065f7d2cb6433d599343e1b7a251.392140237838440762 GLMR
0xe1c57a9ffa81ca1777a26bc8687262b2e7aca909d9073422561118bea981d0b42228392022-01-18 19:59:42250 days 20 hrs ago Beamswap: Router 020x7f337af0d8304065f7d2cb6433d599343e1b7a2517.480610191151291229 GLMR
[ Download CSV Export 
Loading

Contract Name:
0

Compiler Version
0

Optimization Enabled:
0

Other Settings:
-NA-
Block Transaction Gas Used Reward
Age Block Fee Address BC Fee Address Voting Power Jailed Incoming
Block Uncle Number Difficulty Gas Used Reward
Loading
Make sure to use the "Vote Down" button for any spammy posts, and the "Vote Up" for interesting conversations.